Home > Weather > Amiens > Past weeks

Flag for France Past Weather in Amiens, Picardy, France — Yesterday and Last 2 Weeks

Now
57 °F

Partly sunny.


Feels Like: 56 °F
Forecast: 44 / 69 °F
Wind: 7 mph from Northeast

Location: Beauvais Airport

Current Time: May 25, 2016 at 1:19:53 PM

Latest Report: May 25, 2016 at 12:30 PM


Visibility: N/A

Pressure: 29.98 "Hg

Humidity: 72%

Dew Point: 48 °F

Location of AmiensLocation

Past Weather in Amiens — Graph

°F

Amiens Temperature Yesterday

Maximum temperature yesterday: 61 °F (at 6:00 PM)
Minimum temperature yesterday: 45 °F (at 1:00 AM)
Average temperature yesterday: 52 °F

High & Low Weather Summary for the Past Weeks

 TemperatureHumidityPressure
High73 °F (May 21, 5:00 PM)100% (May 10, 11:00 PM)30.24 "Hg (May 10, 11:00 PM)
Low34 °F (May 15, 4:30 AM)49% (May 17, 7:00 PM)29.50 "Hg (May 12, 4:00 AM)
Average55 °F84%29.90 "Hg
* Reported May 10 12:00 PM — May 25 12:00 PM, Amiens, Weather by CustomWeather, © 2016

Note: Actual official high and low records may vary slightly from our data, if they occured in-between our weather recording intervals... More about our weather records

Advertising

Amiens Weather History for the Previous 24 Hours

Scroll right to see more
 ConditionsComfort  
Time TempWeatherWind HumidityBarometerVisibility
12:00 PM
Wed, May 25
57 °FPartly sunny.7 mph72%29.98 "HgN/A
11:30 AM59 °FPartly sunny.7 mph72%29.98 "HgN/A
11:00 AM57 °FPassing clouds.7 mph67%29.98 "HgN/A
10:30 AM55 °FPartly sunny.9 mph72%30.01 "HgN/A
10:00 AM52 °FPartly sunny.8 mph77%30.01 "HgN/A
9:30 AM50 °FOvercast.8 mph88%30.01 "HgN/A
9:00 AM50 °FPartly sunny.9 mph82%30.01 "HgN/A
8:30 AM50 °FPartly sunny.7 mph82%29.98 "HgN/A
8:00 AM46 °FPartly sunny.6 mph93%30.01 "HgN/A
7:30 AM45 °FPartly sunny.3 mph100%30.01 "HgN/A
7:00 AM41 °FOvercast.2 mph100%30.01 "HgN/A
6:30 AM39 °FPassing clouds.2 mph93%30.01 "HgN/A
6:00 AM39 °FClear.1 mph93%30.01 "Hg10 mi
5:30 AM37 °FClear.3 mph93%30.01 "Hg10 mi
5:00 AM39 °FClear.3 mph93%30.01 "Hg10 mi
4:30 AM37 °FClear.5 mph93%30.01 "Hg10 mi
4:00 AM39 °FClear.3 mph93%30.01 "Hg10 mi
3:30 AM41 °FClear.2 mph93%30.01 "Hg10 mi
3:00 AM41 °FClear.6 mph93%30.01 "Hg10 mi
2:30 AM41 °FClear.5 mph93%30.04 "Hg10 mi
2:00 AM45 °FClear.2 mph87%30.04 "Hg10 mi
1:30 AM45 °FClear.2 mph87%30.04 "Hg10 mi
1:00 AM45 °FClear.7 mph87%30.04 "Hg10 mi
12:30 AM46 °FClear.9 mph87%30.04 "Hg10 mi
12:00 AM46 °FClear.12 mph87%30.04 "Hg10 mi
11:30 PM
Tue, May 24
48 °FClear.10 mph82%30.04 "Hg10 mi
11:00 PM50 °FClear.10 mph82%30.04 "Hg10 mi
10:30 PM52 °FSunny.10 mph77%30.04 "Hg10 mi
10:00 PM52 °FSunny.10 mph77%30.04 "Hg10 mi
9:30 PM54 °FSunny.9 mph77%30.01 "Hg10 mi
9:00 PM55 °FOvercast.8 mph72%30.01 "HgN/A
8:30 PM55 °FMore clouds than sun.8 mph72%30.01 "HgN/A
8:00 PM55 °FOvercast.8 mph72%30.01 "HgN/A
7:30 PM57 °FMostly cloudy.9 mph67%30.04 "HgN/A
7:00 PM57 °FMostly cloudy.10 mph67%30.04 "HgN/A
6:30 PM57 °FPartly sunny.9 mph67%30.04 "HgN/A
6:00 PM61 °FPartly sunny.9 mph63%30.04 "HgN/A
5:30 PM59 °FPartly sunny.12 mph63%30.04 "HgN/A
5:00 PM57 °FBroken clouds.9 mph67%30.04 "HgN/A
4:30 PM57 °FBroken clouds.8 mph67%30.07 "HgN/A
4:00 PM57 °FMostly cloudy.8 mph67%30.07 "HgN/A
3:30 PM55 °FMore clouds than sun.7 mph72%30.07 "HgN/A
3:00 PM54 °FMostly cloudy.8 mph77%30.09 "HgN/A
2:30 PM55 °FOvercast.8 mph72%30.09 "HgN/A
2:00 PM55 °FOvercast.7 mph72%30.09 "HgN/A
1:30 PM55 °FOvercast.8 mph67%30.09 "HgN/A
1:00 PM54 °FMostly cloudy.8 mph77%30.09 "HgN/A
Weather by CustomWeather, © 2016

See weather overviewHow to use our weather pages